星链-32098 (STARLINK-32098 )

导读 | 星芒AI

STARLINK-32098 是 SpaceX Starlink 卫星互联网项目中的一颗低轨卫星,属于第 6 批次部署的星链卫星之一。该卫星于 2023 年发射,运行在约 550 公里的轨道高度,旨在为全球用户提供高速、低延迟的宽带互联网服务。作为 Starlink 网络的一部分,它与其他数千颗卫星协同工作,支持偏远地区和传统网络难以覆盖区域的通信需求。该卫星采用先进推进系统,具备自主变轨和避碰能力,有助于提升星座的稳定性和可持续性。

基本信息
目录编号:
59704
目录名称:
STARLINK-32098
国际标识:
2024-086Y
轨道中心:
EARTH
卫星名称:
星链-32098
卫星全名:
星链-32098 (STARLINK-32098 )
卫星状态:
在轨 (已飞行544 天)
发射日期:
2024-05-08 UTC
国别 :
美国 (US)
星等 :
--
轨道信息
数据来源 国际轨道数据
星历时间: 2025-11-02T00:31:14+0800
1天前
查看轨道信息
半长轴: 6861.215km
偏心率: 0.0001168
轨道倾角: 42.997°
近地点辐角 271.692°
升交点赤经 62.982°
平近点角 88.380°
近地点: 482.278km
远地点: 483.882km
周期: 94.267分钟
每日圈数: 15.275705
详细信息
固有亮度:
5
最大亮度:
1.5
卫星平台:
Starlink v2.0 mini
覆盖范围:
全球
运营商:
太空探索技术公司
运营商所在国:
美国
制造商(研发单位):
太空探索技术公司
制造商所在国:
美国
使用方式:
暂无
卫星简介
星链(Starlink)计划是由太空探索技术公司(SpaceX)提出的一个巨型低轨卫星互联网星座项目,计划在2019年至2024年间在太空搭建由约1.2万颗卫星组成的“星链”网络,其中1584颗将部署在地球上空550千米处的近地轨道,并从2020年开始工作。该卫星仍在工作。
2D轨道图
3D轨道图
轨道高度分析图
轨道倾角分析图
轨道综合分析图
查看轨道综合分析图